Flag for Italy Weather past 2 weeks in Avellino, Italy

Now
63 °F

Clear.


Feels Like: 63 °F
Forecast: 60 / 86 °F
Wind: 6 mph from Southeast

Location: Trevico

Current Time: Jul 26, 2014 at 1:45:38 AM

Latest Report: Jul 26, 2014 at 12:55 AM


Visibility: 10 mi

Pressure: 30.07 "Hg

Humidity: 88%

Dew point: 59 °F

Location of AvellinoLocation

Historic Weather in Avellino — Graph

°F

Avellino temperature yesterday

Maximum temperature yesterday: 70 °F (at 3:55 PM)
Minimum temperature yesterday: 59 °F (at 1:55 AM)
Average temperature yesterday: 64 °F

Past Weeks' High & Low Weather Summary

 TemperatureHumidityPressure
High75 °F (Jul 20, 3:55 PM)100% (Jul 14, 7:55 PM)30.15 "Hg (Jul 14, 7:55 PM)
Low52 °F (Jul 10, 11:55 PM)40% (Jul 21, 3:55 AM)29.77 "Hg (Jul 10, 11:55 PM)
Average63 °F75%30.01 "Hg
* Reported Jul 10 11:55 PM — Jul 25 11:55 PM, Avellino, Weather by CustomWeather, © 2014

Note: Actual official high and low records may vary slightly from our data, if they occured in-between our weather recording intervals... More about our weather records

Advertising

Avellino weather history for previous 24 hours

 ConditionsComfort  
Time TempWeatherWind HumidityBarometerVisibility
11:55 PM
Jul 25
63 °FClear.5 mph88%30.07 "Hg10 mi
10:55 PM63 °FClear.3 mph83%30.07 "Hg10 mi
9:55 PM63 °FClear.9 mph94%30.04 "Hg10 mi
8:55 PM64 °FPassing clouds.12 mph94%30.04 "HgN/A
7:55 PM66 °FScattered clouds.12 mph83%30.04 "HgN/A
6:55 PM68 °FScattered clouds.12 mph78%30.04 "HgN/A
5:55 PM70 °FScattered clouds.9 mph69%30.04 "HgN/A
4:55 PM70 °FPassing clouds.7 mph60%30.04 "HgN/A
3:55 PM70 °FPassing clouds.8 mph60%30.04 "HgN/A
2:55 PM68 °FScattered clouds.9 mph60%30.04 "HgN/A
1:55 PM66 °FScattered clouds.6 mph68%30.04 "HgN/A
12:55 PM66 °FPassing clouds.5 mph68%30.04 "HgN/A
11:55 AM66 °FScattered clouds.7 mph73%30.04 "HgN/A
10:55 AM64 °FPassing clouds.8 mph78%30.04 "HgN/A
9:55 AM64 °FPassing clouds.9 mph78%30.01 "HgN/A
8:55 AM63 °FPassing clouds.13 mph77%30.01 "HgN/A
7:55 AM61 °FSunny.13 mph88%30.01 "Hg10 mi
6:55 AM59 °FFog.13 mph88%30.01 "Hg0 mi
5:55 AM59 °FFog.15 mph88%29.98 "Hg0 mi
4:55 AM59 °FFog.15 mph88%29.98 "Hg0 mi
3:55 AM59 °FFog.14 mph88%29.98 "Hg0 mi
2:55 AM59 °FFog.14 mph88%29.98 "Hg0 mi
1:55 AM59 °FFog.14 mph88%30.01 "Hg0 mi
Weather by CustomWeather, © 2014

See weather overviewHow to use our weather pages